UAE40J OMDB-HAAB

Flight info

Callsign UAE40J
Flight time 3h 31m
Altitude 36000
Route ANVIX R401 GIDIS G783 UKRAG L710 KUKDI B400 NODMA L702 ULALI T701 TORBA UB535 LAKBE LAKBE2A
Aircraft B77L/H-SDE1E2E3FGHIJ2J3J4J5M1RWXY/LB1D1

Departure

Time 2026-05-04 23:44
Airport Dubai International Airport (OMDB)

Arrival

Time 2026-05-05 03:16
Airport Addis Ababa Bole International Airport (HAAB)
Time Latitude Longitude Altitude Speed Heading
2026-05-04 23:13 25.23726 55.38308 26 ft 0 kts 301°
2026-05-04 23:24 25.23724 55.38312 26 ft 2 kts 301°
2026-05-04 23:24 25.23714 55.38330 25 ft 3 kts 299°
2026-05-04 23:24 25.23705 55.38347 25 ft 2 kts 300°
2026-05-04 23:24 25.23697 55.38362 24 ft 3 kts 322°
2026-05-04 23:25 25.23682 55.38369 24 ft 3 kts 15°
2026-05-04 23:25 25.23665 55.38360 24 ft 3 kts 34°
2026-05-04 23:25 25.23654 55.38353 24 ft 1 kts 32°
2026-05-04 23:25 25.23652 55.38351 24 ft 0 kts 32°
2026-05-04 23:30 25.23655 55.38353 24 ft 2 kts 32°
2026-05-04 23:30 25.23681 55.38371 24 ft 7 kts 32°
2026-05-04 23:31 25.23726 55.38308 26 ft 0 kts 301°
2026-05-04 23:36 25.23725 55.38309 26 ft 1 kts 301°
2026-05-04 23:36 25.23717 55.38324 26 ft 3 kts 307°
2026-05-04 23:36 25.23704 55.38341 26 ft 3 kts 317°
2026-05-04 23:36 25.23688 55.38354 26 ft 3 kts 335°
2026-05-04 23:37 25.23671 55.38360 26 ft 3 kts 10°
2026-05-04 23:37 25.23661 55.38357 24 ft 0 kts 32°
2026-05-04 23:39 25.23668 55.38362 26 ft 4 kts 32°
2026-05-04 23:39 25.23721 55.38398 26 ft 11 kts 31°
2026-05-04 23:40 25.23787 55.38442 26 ft 11 kts 31°
2026-05-04 23:40 25.23853 55.38489 26 ft 11 kts 33°
2026-05-04 23:40 25.23920 55.38536 26 ft 11 kts 32°
2026-05-04 23:40 25.23987 55.38582 26 ft 11 kts 32°
2026-05-04 23:41 25.24056 55.38628 26 ft 12 kts 30°
2026-05-04 23:41 25.24132 55.38679 26 ft 13 kts 31°
2026-05-04 23:41 25.24217 55.38701 26 ft 13 kts 336°
2026-05-04 23:41 25.24274 55.38623 26 ft 13 kts 302°
2026-05-04 23:42 25.24322 55.38537 26 ft 13 kts 301°
2026-05-04 23:42 25.24373 55.38446 26 ft 14 kts 302°
2026-05-04 23:42 25.24425 55.38353 26 ft 14 kts 301°
2026-05-04 23:42 25.24478 55.38269 26 ft 11 kts 324°
2026-05-04 23:43 25.24550 55.38281 26 ft 11 kts 29°
2026-05-04 23:43 25.24619 55.38318 26 ft 11 kts
2026-05-04 23:43 25.24671 55.38260 26 ft 12 kts 302°
2026-05-04 23:43 25.24784 55.38059 26 ft 63 kts 302°
2026-05-04 23:44 25.25160 55.37386 27 ft 139 kts 301°
2026-05-04 23:44 25.25765 55.36306 162 ft 182 kts 300°
2026-05-04 23:44 25.26422 55.35106 800 ft 184 kts 300°
2026-05-04 23:44 25.27086 55.33902 1622 ft 181 kts 302°
2026-05-04 23:45 25.27758 55.32696 2254 ft 190 kts 302°
2026-05-04 23:45 25.28464 55.31431 2799 ft 198 kts 302°
2026-05-04 23:45 25.29161 55.30077 3267 ft 213 kts 290°
2026-05-04 23:45 25.29151 55.28382 3612 ft 233 kts 250°
2026-05-04 23:46 25.28437 55.26726 4177 ft 243 kts 246°
2026-05-04 23:46 25.27694 55.25027 4938 ft 247 kts 247°
2026-05-04 23:46 25.26946 55.23287 5678 ft 253 kts 247°
2026-05-04 23:46 25.26176 55.21535 6384 ft 257 kts 241°
2026-05-04 23:47 25.24924 55.20087 7044 ft 266 kts 211°
2026-05-04 23:47 25.23195 55.19371 7813 ft 267 kts 194°
2026-05-04 23:47 25.21378 55.18906 8490 ft 274 kts 193°
2026-05-04 23:47 25.19476 55.18451 9090 ft 286 kts 192°
2026-05-04 23:48 25.17434 55.18138 9409 ft 304 kts 174°
2026-05-04 23:48 25.15457 55.18881 10009 ft 310 kts 144°
2026-05-04 23:48 25.13872 55.20525 10564 ft 322 kts 125°
2026-05-04 23:48 25.12800 55.22786 10749 ft 345 kts 110°
2026-05-04 23:49 25.11936 55.25377 10962 ft 373 kts 108°
2026-05-04 23:49 25.11059 55.28159 11389 ft 391 kts 108°
2026-05-04 23:49 25.10147 55.31033 12096 ft 400 kts 109°
2026-05-04 23:49 25.09202 55.33951 12921 ft 407 kts 109°
2026-05-04 23:50 25.08224 55.36912 13756 ft 413 kts 110°
2026-05-04 23:50 25.07224 55.39899 14538 ft 418 kts 110°
2026-05-04 23:50 25.06216 55.42890 15303 ft 423 kts 111°
2026-05-04 23:50 25.05181 55.45953 16066 ft 428 kts 111°
2026-05-04 23:51 25.04130 55.49062 16846 ft 434 kts 111°
2026-05-04 23:51 25.03070 55.52198 17605 ft 439 kts 111°
2026-05-04 23:51 25.01945 55.55294 18344 ft 442 kts 115°
2026-05-04 23:51 25.00511 55.58312 19005 ft 446 kts 122°
2026-05-04 23:52 24.98887 55.61238 19667 ft 450 kts 123°
2026-05-04 23:52 24.97236 55.64207 20314 ft 455 kts 122°
2026-05-04 23:52 24.95595 55.67209 20961 ft 459 kts 122°
2026-05-04 23:52 24.93932 55.70244 21610 ft 463 kts 123°
2026-05-04 23:53 24.92133 55.73148 22212 ft 466 kts 127°
2026-05-04 23:53 24.90181 55.76037 22811 ft 471 kts 128°
2026-05-04 23:53 24.88192 55.78930 23400 ft 475 kts 128°
2026-05-04 23:53 24.86871 55.80877 23713 ft 479 kts 128°
2026-05-04 23:54 24.84886 55.83849 24171 ft 483 kts 127°
2026-05-04 23:54 24.82239 55.87824 24808 ft 488 kts 128°
2026-05-04 23:54 24.80013 55.90627 25095 ft 488 kts 141°
2026-05-04 23:54 24.78166 55.92048 25306 ft 489 kts 154°
2026-05-04 23:55 24.75008 55.93396 25805 ft 485 kts 169°
2026-05-04 23:55 24.71665 55.93838 26348 ft 479 kts 184°
2026-05-04 23:55 24.64983 55.93429 27260 ft 482 kts 188°
2026-05-04 23:56 24.61721 55.92790 27550 ft 483 kts 200°
2026-05-04 23:56 24.58595 55.91423 27960 ft 482 kts 210°
2026-05-04 23:56 24.55762 55.89472 28443 ft 477 kts 221°
2026-05-04 23:56 24.53263 55.87070 28829 ft 478 kts 225°
2026-05-04 23:57 24.50788 55.84588 29193 ft 481 kts 225°
2026-05-04 23:57 24.48330 55.82136 29566 ft 484 kts 225°
2026-05-04 23:57 24.45800 55.79655 29953 ft 486 kts 224°
2026-05-04 23:57 24.43258 55.77203 30399 ft 484 kts 224°
2026-05-04 23:58 24.40725 55.74779 30930 ft 481 kts 224°
2026-05-04 23:58 24.38237 55.72400 31443 ft 479 kts 224°
2026-05-04 23:58 24.35716 55.69982 31932 ft 478 kts 224°
2026-05-04 23:58 24.33216 55.67567 32416 ft 476 kts 224°
2026-05-04 23:59 24.30766 55.65199 32904 ft 475 kts 224°
2026-05-04 23:59 24.28156 55.62945 33368 ft 477 kts 217°
2026-05-04 23:59 24.25281 55.61091 33809 ft 480 kts 211°
2026-05-04 23:59 24.22234 55.59552 34220 ft 482 kts 205°
2026-05-05 00:00 24.19042 55.58403 34657 ft 483 kts 199°
2026-05-05 00:00 24.16895 55.57780 34954 ft 481 kts 198°
2026-05-05 00:00 24.12562 55.56572 35520 ft 479 kts 198°
2026-05-05 00:00 24.09371 55.55669 35911 ft 477 kts 199°
2026-05-05 00:01 24.06166 55.54736 36315 ft 475 kts 199°
2026-05-05 00:01 24.02967 55.53789 36704 ft 474 kts 199°
2026-05-05 00:01 23.99798 55.52847 37094 ft 472 kts 199°
2026-05-05 00:01 23.96629 55.51903 37483 ft 470 kts 199°
2026-05-05 00:02 23.93508 55.50973 37820 ft 470 kts 199°
2026-05-05 00:02 23.87149 55.49079 37789 ft 474 kts 199°
2026-05-05 00:03 23.80808 55.47195 37774 ft 469 kts 199°
2026-05-05 00:03 23.74559 55.45332 37787 ft 466 kts 199°
2026-05-05 00:04 23.68290 55.43463 37779 ft 466 kts 199°
2026-05-05 00:04 23.62056 55.41607 37791 ft 466 kts 199°
2026-05-05 00:05 23.55776 55.39789 37780 ft 469 kts 195°
2026-05-05 00:05 23.49182 55.39436 37798 ft 480 kts 180°
2026-05-05 00:06 23.42612 55.40927 37788 ft 488 kts 168°
2026-05-05 00:06 23.36100 55.43026 37786 ft 490 kts 167°
2026-05-05 00:07 23.29543 55.45163 37784 ft 491 kts 167°
2026-05-05 00:07 23.22950 55.47262 37784 ft 492 kts 168°
2026-05-05 00:08 23.16386 55.49331 37770 ft 492 kts 167°
2026-05-05 00:08 23.09803 55.51407 37778 ft 492 kts 167°
2026-05-05 00:09 23.03256 55.53470 37782 ft 492 kts 167°
2026-05-05 00:09 22.96676 55.55493 37777 ft 491 kts 168°
2026-05-05 00:10 22.90123 55.57483 37768 ft 491 kts 168°
2026-05-05 00:10 22.83532 55.59490 37778 ft 490 kts 168°
2026-05-05 00:11 22.76952 55.61497 37774 ft 490 kts 168°
2026-05-05 00:11 22.70415 55.63490 37774 ft 490 kts 168°
2026-05-05 00:12 22.63826 55.65496 37770 ft 490 kts 167°
2026-05-05 00:12 22.57280 55.67494 37771 ft 491 kts 167°
2026-05-05 00:13 22.50692 55.69516 37773 ft 491 kts 167°
2026-05-05 00:13 22.44141 55.71523 37763 ft 491 kts 167°
2026-05-05 00:14 22.37539 55.73543 37765 ft 492 kts 167°
2026-05-05 00:14 22.30936 55.75561 37764 ft 493 kts 167°
2026-05-05 00:15 22.24311 55.77307 37763 ft 490 kts 174°
2026-05-05 00:15 22.17569 55.78032 37754 ft 488 kts 178°
2026-05-05 00:16 22.10769 55.78647 37775 ft 489 kts 178°
2026-05-05 00:16 22.04006 55.79300 37764 ft 490 kts 177°
2026-05-05 00:17 21.97204 55.79985 37756 ft 491 kts 177°
2026-05-05 00:17 21.90427 55.80669 37755 ft 491 kts 177°
2026-05-05 00:18 21.83633 55.81353 37771 ft 491 kts 177°
2026-05-05 00:18 21.76804 55.82038 37764 ft 491 kts 177°
2026-05-05 00:19 21.69994 55.82720 37755 ft 492 kts 177°
2026-05-05 00:19 21.63204 55.83388 37749 ft 491 kts 176°
2026-05-05 00:20 21.56369 55.84054 37765 ft 491 kts 176°
2026-05-05 00:20 21.49598 55.84714 37764 ft 491 kts 176°
2026-05-05 00:21 21.42784 55.85380 37752 ft 491 kts 176°
2026-05-05 00:21 21.35961 55.86046 37761 ft 491 kts 176°
2026-05-05 00:22 21.29192 55.86706 37758 ft 491 kts 176°
2026-05-05 00:22 21.22373 55.87366 37746 ft 491 kts 176°
2026-05-05 00:23 21.15605 55.88016 37761 ft 490 kts 176°
2026-05-05 00:23 21.08786 55.88671 37748 ft 490 kts 176°
2026-05-05 00:24 21.02017 55.89321 37765 ft 490 kts 176°
2026-05-05 00:24 20.95221 55.89973 37760 ft 490 kts 176°
2026-05-05 00:25 20.88416 55.90626 37761 ft 490 kts 176°
2026-05-05 00:25 20.81656 55.91280 37757 ft 490 kts 176°
2026-05-05 00:26 20.74891 55.91947 37756 ft 489 kts 176°
2026-05-05 00:26 20.68095 55.92617 37758 ft 489 kts 176°
2026-05-05 00:27 20.61336 55.93280 37757 ft 489 kts 176°
2026-05-05 00:27 20.54542 55.93946 37746 ft 489 kts 175°
2026-05-05 00:28 20.47795 55.94607 37746 ft 489 kts 175°
2026-05-05 00:28 20.41011 55.95270 37759 ft 489 kts 175°
2026-05-05 00:29 20.34222 55.95934 37757 ft 489 kts 175°
2026-05-05 00:29 20.27467 55.96588 37758 ft 489 kts 175°
2026-05-05 00:30 20.20675 55.97233 37754 ft 489 kts 175°
2026-05-05 00:30 20.13922 55.97874 37754 ft 489 kts 175°
2026-05-05 00:31 20.07119 55.98468 37749 ft 489 kts 178°
2026-05-05 00:31 20.00358 55.98656 37756 ft 488 kts 180°
2026-05-05 00:32 19.93568 55.98777 37762 ft 488 kts 179°
2026-05-05 00:32 19.86769 55.98922 37757 ft 488 kts 179°
2026-05-05 00:33 19.80005 55.99086 37755 ft 488 kts 179°
2026-05-05 00:33 19.73192 55.99254 37756 ft 488 kts 179°
2026-05-05 00:34 19.66394 55.99419 37756 ft 488 kts 179°
2026-05-05 00:34 19.59633 55.99582 37764 ft 488 kts 179°
2026-05-05 00:35 19.52866 55.99442 37751 ft 486 kts 190°
2026-05-05 00:35 19.46449 55.97390 37771 ft 484 kts 206°
2026-05-05 00:36 19.40602 55.93880 37768 ft 483 kts 211°
2026-05-05 00:36 19.34810 55.90248 37770 ft 484 kts 211°
2026-05-05 00:37 19.29006 55.86685 37765 ft 485 kts 210°
2026-05-05 00:37 19.23126 55.83123 37771 ft 486 kts 210°
2026-05-05 00:38 19.17277 55.79586 37769 ft 486 kts 210°
2026-05-05 00:38 19.11391 55.76024 37770 ft 486 kts 210°
2026-05-05 00:39 19.05535 55.72483 37774 ft 487 kts 210°
2026-05-05 00:39 18.99642 55.68933 37769 ft 487 kts 210°
2026-05-05 00:40 18.93787 55.65415 37778 ft 487 kts 210°
2026-05-05 00:40 18.87886 55.61870 37774 ft 487 kts 210°
2026-05-05 00:41 18.82001 55.58336 37775 ft 486 kts 210°
2026-05-05 00:41 18.76146 55.54822 37773 ft 486 kts 210°
2026-05-05 00:42 18.71254 55.51888 37779 ft 485 kts 210°
2026-05-05 00:42 18.65373 55.48363 37776 ft 485 kts 210°
2026-05-05 00:43 18.58537 55.44271 37773 ft 485 kts 210°
2026-05-05 00:43 18.53618 55.41328 37786 ft 485 kts 210°
2026-05-05 00:44 18.47777 55.37835 37776 ft 485 kts 210°
2026-05-05 00:44 18.41910 55.34330 37783 ft 485 kts 210°
2026-05-05 00:45 18.36029 55.30819 37787 ft 485 kts 210°
2026-05-05 00:45 18.30186 55.27333 37789 ft 485 kts 210°
2026-05-05 00:46 18.24308 55.23826 37787 ft 485 kts 210°
2026-05-05 00:46 18.18430 55.20321 37785 ft 486 kts 210°
2026-05-05 00:47 18.12495 55.16956 37789 ft 486 kts 204°
2026-05-05 00:47 18.06279 55.14158 37792 ft 486 kts 203°
2026-05-05 00:48 18.00011 55.11406 37801 ft 487 kts 203°
2026-05-05 00:48 17.93782 55.08638 37799 ft 487 kts 203°
2026-05-05 00:49 17.87583 55.05861 37798 ft 487 kts 203°
2026-05-05 00:49 17.81341 55.03061 37804 ft 487 kts 203°
2026-05-05 00:50 17.75087 55.00260 37810 ft 487 kts 203°
2026-05-05 00:50 17.68977 54.97527 37805 ft 486 kts 203°
2026-05-05 00:51 17.62749 54.94743 37812 ft 486 kts 203°
2026-05-05 00:51 17.56525 54.91963 37822 ft 486 kts 203°
2026-05-05 00:52 17.50333 54.89199 37831 ft 485 kts 203°
2026-05-05 00:52 17.44116 54.86426 37832 ft 485 kts 203°
2026-05-05 00:53 17.37888 54.83650 37832 ft 485 kts 203°
2026-05-05 00:53 17.31709 54.80897 37842 ft 485 kts 203°
2026-05-05 00:54 17.25584 54.77923 37833 ft 485 kts 210°
2026-05-05 00:54 17.19885 54.74132 37836 ft 484 kts 213°
2026-05-05 00:55 17.14276 54.70306 37835 ft 484 kts 213°
2026-05-05 00:55 17.08597 54.66483 37826 ft 484 kts 212°
2026-05-05 00:56 17.02908 54.62683 37823 ft 484 kts 212°
2026-05-05 00:56 16.97257 54.58912 37818 ft 485 kts 212°
2026-05-05 00:57 16.91566 54.55114 37805 ft 484 kts 212°
2026-05-05 00:57 16.85914 54.51344 37806 ft 484 kts 212°
2026-05-05 00:58 16.80253 54.47568 37803 ft 484 kts 212°
2026-05-05 00:58 16.74566 54.43776 37800 ft 484 kts 212°
2026-05-05 00:59 16.68882 54.39987 37799 ft 484 kts 212°
2026-05-05 00:59 16.63228 54.36222 37800 ft 484 kts 212°
2026-05-05 01:00 16.57521 54.32423 37802 ft 484 kts 212°
2026-05-05 01:00 16.51855 54.28656 37808 ft 485 kts 212°
2026-05-05 01:01 16.46164 54.24874 37810 ft 485 kts 212°
2026-05-05 01:01 16.40492 54.21107 37805 ft 485 kts 212°
2026-05-05 01:02 16.34773 54.17312 37808 ft 486 kts 212°
2026-05-05 01:02 16.29092 54.13544 37810 ft 486 kts 212°
2026-05-05 01:03 16.23401 54.09773 37808 ft 486 kts 212°
2026-05-05 01:03 16.17684 54.05987 37808 ft 486 kts 212°
2026-05-05 01:04 16.11975 54.02208 37812 ft 486 kts 212°
2026-05-05 01:04 16.03518 53.96616 37810 ft 486 kts 212°
2026-05-05 01:05 15.97804 53.92840 37807 ft 486 kts 212°
2026-05-05 01:05 15.92128 53.89091 37809 ft 486 kts 212°
2026-05-05 01:06 15.86405 53.85313 37812 ft 487 kts 212°
2026-05-05 01:06 15.80692 53.81501 37815 ft 487 kts 212°
2026-05-05 01:07 15.75013 53.77701 37812 ft 487 kts 212°
2026-05-05 01:07 15.69327 53.73904 37819 ft 488 kts 212°
2026-05-05 01:08 15.63610 53.70092 37818 ft 488 kts 212°
2026-05-05 01:08 15.57878 53.66272 37807 ft 489 kts 211°
2026-05-05 01:09 15.52186 53.62481 37817 ft 489 kts 212°
2026-05-05 01:09 15.46516 53.58561 37817 ft 490 kts 219°
2026-05-05 01:10 15.42017 53.53292 37825 ft 492 kts 237°
2026-05-05 01:10 15.38960 53.46917 37829 ft 493 kts 245°
2026-05-05 01:11 15.36184 53.40432 37825 ft 495 kts 244°
2026-05-05 01:11 15.33341 53.33896 37823 ft 496 kts 244°
2026-05-05 01:12 15.30467 53.27420 37825 ft 496 kts 244°
2026-05-05 01:12 15.27567 53.20933 37826 ft 496 kts 244°
2026-05-05 01:13 15.24678 53.14476 37815 ft 495 kts 244°
2026-05-05 01:13 15.21781 53.08001 37821 ft 494 kts 244°
2026-05-05 01:14 15.18911 53.01588 37821 ft 493 kts 244°
2026-05-05 01:14 15.16069 52.95243 37813 ft 493 kts 244°
2026-05-05 01:15 15.13180 52.88800 37826 ft 493 kts 244°
2026-05-05 01:15 15.10285 52.82349 37828 ft 493 kts 244°
2026-05-05 01:16 15.07409 52.75946 37820 ft 494 kts 244°
2026-05-05 01:16 15.04505 52.69487 37830 ft 494 kts 243°
2026-05-05 01:17 15.01619 52.63074 37831 ft 494 kts 244°
2026-05-05 01:17 14.98719 52.56634 37820 ft 494 kts 244°
2026-05-05 01:18 14.95828 52.50220 37829 ft 494 kts 243°
2026-05-05 01:18 14.92916 52.43763 37831 ft 494 kts 244°
2026-05-05 01:19 14.90008 52.37322 37825 ft 494 kts 243°
2026-05-05 01:19 14.87113 52.30915 37824 ft 493 kts 244°
2026-05-05 01:20 14.84179 52.24498 37833 ft 493 kts 243°
2026-05-05 01:20 14.81229 52.18125 37823 ft 493 kts 243°
2026-05-05 01:21 14.78269 52.11726 37821 ft 492 kts 243°
2026-05-05 01:21 14.75319 52.05339 37831 ft 492 kts 243°
2026-05-05 01:22 14.72420 51.99066 37834 ft 492 kts 243°
2026-05-05 01:22 14.69486 51.92722 37821 ft 492 kts 243°
2026-05-05 01:23 14.66529 51.86334 37829 ft 492 kts 243°
2026-05-05 01:23 14.63589 51.79920 37833 ft 493 kts 243°
2026-05-05 01:24 14.60688 51.73549 37834 ft 493 kts 243°
2026-05-05 01:24 14.57757 51.67119 37830 ft 493 kts 243°
2026-05-05 01:25 14.54846 51.60749 37832 ft 493 kts 243°
2026-05-05 01:25 14.51912 51.54338 37835 ft 493 kts 243°
2026-05-05 01:26 14.48993 51.47964 37833 ft 493 kts 243°
2026-05-05 01:26 14.46061 51.41569 37834 ft 493 kts 243°
2026-05-05 01:27 14.43117 51.35152 37826 ft 493 kts 243°
2026-05-05 01:27 14.40197 51.28792 37830 ft 492 kts 243°
2026-05-05 01:28 14.37259 51.22397 37830 ft 492 kts 243°
2026-05-05 01:28 14.34340 51.16051 37831 ft 492 kts 243°
2026-05-05 01:29 14.31399 51.09663 37837 ft 492 kts 243°
2026-05-05 01:29 14.28480 51.03325 37831 ft 491 kts 243°
2026-05-05 01:30 14.25587 50.97052 37832 ft 491 kts 243°
2026-05-05 01:30 14.22648 50.90683 37843 ft 491 kts 243°
2026-05-05 01:31 14.19722 50.84346 37841 ft 492 kts 243°
2026-05-05 01:31 14.16772 50.77962 37833 ft 492 kts 243°
2026-05-05 01:32 14.14315 50.72649 37837 ft 492 kts 243°
2026-05-05 01:32 14.11378 50.66307 37830 ft 492 kts 243°
2026-05-05 01:33 14.07621 50.59090 37829 ft 491 kts 239°
2026-05-05 01:33 14.04807 50.53943 37832 ft 491 kts 239°
2026-05-05 01:34 14.01487 50.47844 37833 ft 491 kts 239°
2026-05-05 01:34 13.98159 50.41679 37836 ft 491 kts 239°
2026-05-05 01:35 13.94839 50.35518 37832 ft 491 kts 239°
2026-05-05 01:35 13.91540 50.29400 37834 ft 491 kts 239°
2026-05-05 01:36 13.88215 50.23244 37833 ft 491 kts 239°
2026-05-05 01:36 13.84886 50.17085 37830 ft 491 kts 239°
2026-05-05 01:37 13.81577 50.10965 37818 ft 491 kts 239°
2026-05-05 01:37 13.78253 50.04821 37831 ft 491 kts 239°
2026-05-05 01:38 13.75017 49.98793 37830 ft 491 kts 239°
2026-05-05 01:38 13.71713 49.92622 37827 ft 491 kts 239°
2026-05-05 01:39 13.68409 49.86458 37830 ft 491 kts 239°
2026-05-05 01:39 13.65115 49.80325 37831 ft 492 kts 239°
2026-05-05 01:40 13.61814 49.74182 37823 ft 492 kts 239°
2026-05-05 01:40 13.58497 49.68015 37828 ft 492 kts 239°
2026-05-05 01:41 13.55175 49.61843 37825 ft 492 kts 239°
2026-05-05 01:41 13.51875 49.55715 37826 ft 492 kts 239°
2026-05-05 01:42 13.48547 49.49540 37817 ft 492 kts 239°
2026-05-05 01:42 13.45230 49.43390 37825 ft 493 kts 239°
2026-05-05 01:43 13.41921 49.37260 37821 ft 493 kts 239°
2026-05-05 01:43 13.38593 49.31099 37824 ft 493 kts 239°
2026-05-05 01:44 13.35257 49.24926 37826 ft 493 kts 239°
2026-05-05 01:44 13.31944 49.18799 37821 ft 493 kts 239°
2026-05-05 01:45 13.28622 49.12607 37822 ft 494 kts 240°
2026-05-05 01:45 13.25333 49.06439 37826 ft 494 kts 240°
2026-05-05 01:46 13.22049 49.00284 37822 ft 494 kts 240°
2026-05-05 01:46 13.18781 48.94173 37822 ft 494 kts 240°
2026-05-05 01:47 13.15468 48.87984 37820 ft 494 kts 240°
2026-05-05 01:47 13.12172 48.81831 37825 ft 494 kts 240°
2026-05-05 01:48 13.08855 48.75645 37824 ft 494 kts 240°
2026-05-05 01:48 13.05533 48.69453 37828 ft 494 kts 240°
2026-05-05 01:49 13.02236 48.63310 37826 ft 494 kts 240°
2026-05-05 01:49 12.98924 48.57147 37825 ft 493 kts 240°
2026-05-05 01:50 12.95623 48.51005 37823 ft 493 kts 240°
2026-05-05 01:50 12.92300 48.44828 37820 ft 493 kts 240°
2026-05-05 01:51 12.89001 48.38700 37823 ft 493 kts 240°
2026-05-05 01:51 12.85676 48.32529 37824 ft 493 kts 240°
2026-05-05 01:52 12.82370 48.26396 37828 ft 493 kts 240°
2026-05-05 01:52 12.79047 48.20237 37829 ft 493 kts 240°
2026-05-05 01:53 12.75750 48.14130 37826 ft 493 kts 240°
2026-05-05 01:53 12.72424 48.07973 37825 ft 492 kts 240°
2026-05-05 01:54 12.69103 48.01830 37826 ft 492 kts 240°
2026-05-05 01:54 12.65829 47.95778 37825 ft 492 kts 240°
2026-05-05 01:55 12.62525 47.89674 37819 ft 492 kts 240°
2026-05-05 01:55 12.59220 47.83571 37823 ft 492 kts 240°
2026-05-05 01:56 12.55891 47.77430 37829 ft 491 kts 240°
2026-05-05 01:56 12.52588 47.71340 37820 ft 491 kts 240°
2026-05-05 01:57 12.49264 47.65216 37828 ft 491 kts 240°
2026-05-05 01:57 12.45942 47.59097 37825 ft 491 kts 240°
2026-05-05 01:58 12.42663 47.53009 37829 ft 491 kts 243°
2026-05-05 01:58 12.40438 47.46394 37834 ft 492 kts 257°
2026-05-05 01:59 12.39661 47.39420 37828 ft 493 kts 266°
2026-05-05 01:59 12.39312 47.32446 37834 ft 493 kts 266°
2026-05-05 02:00 12.38917 47.25427 37823 ft 493 kts 266°
2026-05-05 02:00 12.38473 47.18444 37826 ft 494 kts 265°
2026-05-05 02:01 12.38019 47.11420 37823 ft 494 kts 265°
2026-05-05 02:01 12.37571 47.04447 37825 ft 494 kts 266°
2026-05-05 02:02 12.37130 46.97529 37829 ft 493 kts 266°
2026-05-05 02:02 12.36686 46.90546 37825 ft 493 kts 266°
2026-05-05 02:03 12.36238 46.83529 37822 ft 492 kts 266°
2026-05-05 02:03 12.35793 46.76580 37826 ft 492 kts 266°
2026-05-05 02:04 12.35343 46.69604 37827 ft 492 kts 266°
2026-05-05 02:04 12.34891 46.62613 37833 ft 492 kts 265°
2026-05-05 02:05 12.34440 46.55665 37821 ft 492 kts 265°
2026-05-05 02:05 12.33984 46.48668 37823 ft 492 kts 266°
2026-05-05 02:06 12.33529 46.41715 37829 ft 492 kts 265°
2026-05-05 02:06 12.33068 46.34711 37825 ft 492 kts 266°
2026-05-05 02:07 12.32609 46.27752 37825 ft 492 kts 265°
2026-05-05 02:07 12.32146 46.20756 37820 ft 492 kts 265°
2026-05-05 02:08 12.31684 46.13803 37827 ft 492 kts 265°
2026-05-05 02:08 12.31219 46.06836 37821 ft 492 kts 265°
2026-05-05 02:09 12.30753 45.99877 37821 ft 492 kts 265°
2026-05-05 02:09 12.30286 45.92928 37824 ft 492 kts 265°
2026-05-05 02:10 12.29816 45.85976 37821 ft 492 kts 265°
2026-05-05 02:10 12.29343 45.78983 37814 ft 492 kts 265°
2026-05-05 02:11 12.28870 45.72033 37823 ft 492 kts 265°
2026-05-05 02:11 12.28393 45.65049 37812 ft 492 kts 265°
2026-05-05 02:12 12.27677 45.54606 37812 ft 491 kts 265°
2026-05-05 02:13 12.27196 45.47623 37817 ft 491 kts 265°
2026-05-05 02:13 12.26717 45.40691 37821 ft 491 kts 265°
2026-05-05 02:14 12.26252 45.33728 37820 ft 491 kts 266°
2026-05-05 02:14 12.25814 45.26752 37815 ft 490 kts 265°
2026-05-05 02:15 12.25378 45.19822 37818 ft 490 kts 266°
2026-05-05 02:15 12.24934 45.12852 37816 ft 490 kts 266°
2026-05-05 02:16 12.24486 45.05880 37821 ft 490 kts 265°
2026-05-05 02:16 12.24045 44.99053 37812 ft 490 kts 266°
2026-05-05 02:17 12.23593 44.92082 37821 ft 489 kts 265°
2026-05-05 02:17 12.23144 44.85181 37821 ft 489 kts 265°
2026-05-05 02:18 12.22689 44.78216 37817 ft 489 kts 266°
2026-05-05 02:18 12.22237 44.71312 37824 ft 489 kts 265°
2026-05-05 02:19 12.21779 44.64353 37817 ft 489 kts 265°
2026-05-05 02:19 12.21323 44.57452 37822 ft 489 kts 265°
2026-05-05 02:20 12.20862 44.50506 37822 ft 489 kts 265°
2026-05-05 02:20 12.20402 44.43590 37821 ft 489 kts 265°
2026-05-05 02:21 12.20016 44.37814 37821 ft 489 kts 265°
2026-05-05 02:21 12.19476 44.29752 37823 ft 488 kts 265°
2026-05-05 02:22 12.19009 44.22819 37822 ft 488 kts 265°
2026-05-05 02:22 12.18543 44.15920 37822 ft 488 kts 265°
2026-05-05 02:23 12.18150 44.10111 37822 ft 488 kts 265°
2026-05-05 02:23 12.16838 44.03384 37835 ft 486 kts 249°
2026-05-05 02:24 12.13749 43.97360 37824 ft 484 kts 235°
2026-05-05 02:24 12.09874 43.91763 37829 ft 485 kts 234°
2026-05-05 02:25 12.05969 43.86131 37829 ft 485 kts 234°
2026-05-05 02:25 12.02110 43.80455 37830 ft 485 kts 235°
2026-05-05 02:26 11.98292 43.74804 37827 ft 486 kts 234°
2026-05-05 02:26 11.94442 43.69112 37824 ft 486 kts 235°
2026-05-05 02:27 11.90613 43.63458 37831 ft 486 kts 235°
2026-05-05 02:27 11.86764 43.57763 37834 ft 486 kts 235°
2026-05-05 02:28 11.83006 43.52060 37831 ft 486 kts 236°
2026-05-05 02:28 11.79237 43.46305 37831 ft 487 kts 236°
2026-05-05 02:29 11.75455 43.40551 37835 ft 487 kts 236°
2026-05-05 02:29 11.71698 43.34850 37837 ft 488 kts 236°
2026-05-05 02:30 11.67901 43.29094 37839 ft 488 kts 236°
2026-05-05 02:30 11.64101 43.23335 37840 ft 489 kts 236°
2026-05-05 02:31 11.60325 43.17614 37844 ft 489 kts 236°
2026-05-05 02:31 11.56521 43.11856 37847 ft 489 kts 236°
2026-05-05 02:32 11.52938 43.05951 37858 ft 489 kts 240°
2026-05-05 02:32 11.49680 42.99910 37855 ft 490 kts 241°
2026-05-05 02:33 11.46455 42.93895 37866 ft 490 kts 241°
2026-05-05 02:33 11.43159 42.87805 37862 ft 490 kts 241°
2026-05-05 02:34 11.39851 42.81727 37868 ft 490 kts 241°
2026-05-05 02:34 11.36536 42.75646 37882 ft 490 kts 241°
2026-05-05 02:35 11.33250 42.69618 37882 ft 489 kts 241°
2026-05-05 02:35 11.29936 42.63542 37894 ft 489 kts 241°
2026-05-05 02:36 11.26641 42.57503 37892 ft 489 kts 241°
2026-05-05 02:36 11.23327 42.51434 37878 ft 489 kts 241°
2026-05-05 02:37 11.20018 42.45377 37887 ft 489 kts 241°
2026-05-05 02:37 11.16707 42.39320 37877 ft 489 kts 241°
2026-05-05 02:38 11.13420 42.33310 37883 ft 489 kts 241°
2026-05-05 02:38 11.10099 42.27241 37879 ft 489 kts 241°
2026-05-05 02:39 11.06804 42.21221 37881 ft 489 kts 241°
2026-05-05 02:39 11.03456 42.15185 37870 ft 489 kts 238°
2026-05-05 02:40 10.99492 42.09537 37876 ft 490 kts 232°
2026-05-05 02:40 10.95288 42.04118 37877 ft 490 kts 232°
2026-05-05 02:41 10.91147 41.98701 37879 ft 491 kts 233°
2026-05-05 02:41 10.87007 41.93149 37875 ft 491 kts 233°
2026-05-05 02:42 10.82930 41.87621 37880 ft 491 kts 233°
2026-05-05 02:42 10.78823 41.82053 37880 ft 491 kts 233°
2026-05-05 02:43 10.74706 41.76490 37874 ft 491 kts 233°
2026-05-05 02:43 10.70611 41.70965 37893 ft 492 kts 233°
2026-05-05 02:44 10.66487 41.65403 37882 ft 492 kts 233°
2026-05-05 02:44 10.62378 41.59863 37884 ft 492 kts 233°
2026-05-05 02:45 10.58247 41.54297 37893 ft 492 kts 233°
2026-05-05 02:45 10.54145 41.48773 37887 ft 492 kts 233°
2026-05-05 02:46 10.50007 41.43201 37883 ft 492 kts 233°
2026-05-05 02:46 10.45904 41.37681 37885 ft 492 kts 233°
2026-05-05 02:47 10.41769 41.32120 37885 ft 492 kts 233°
2026-05-05 02:47 10.37654 41.26588 37884 ft 492 kts 233°
2026-05-05 02:48 10.33517 41.21031 37885 ft 492 kts 233°
2026-05-05 02:48 10.29369 41.15461 37894 ft 492 kts 233°
2026-05-05 02:49 10.25257 41.09941 37892 ft 492 kts 233°
2026-05-05 02:49 10.21119 41.04390 37884 ft 492 kts 233°
2026-05-05 02:50 10.17051 40.98935 37878 ft 492 kts 233°
2026-05-05 02:50 10.12938 40.93424 37884 ft 492 kts 233°
2026-05-05 02:51 10.08784 40.87859 37892 ft 492 kts 233°
2026-05-05 02:51 10.04668 40.82348 37888 ft 492 kts 233°
2026-05-05 02:52 10.00534 40.76815 37894 ft 491 kts 233°
2026-05-05 02:52 9.96397 40.71281 37894 ft 491 kts 233°
2026-05-05 02:53 9.92292 40.65792 37890 ft 490 kts 233°
2026-05-05 02:53 9.88172 40.60285 37885 ft 489 kts 233°
2026-05-05 02:54 9.84081 40.54820 37890 ft 489 kts 233°
2026-05-05 02:54 9.79960 40.49317 37891 ft 489 kts 233°
2026-05-05 02:55 9.75841 40.43820 37901 ft 488 kts 233°
2026-05-05 02:55 9.71755 40.38366 37892 ft 488 kts 233°
2026-05-05 02:56 9.67698 40.32858 37903 ft 487 kts 235°
2026-05-05 02:56 9.63956 40.27118 37900 ft 487 kts 237°
2026-05-05 02:57 9.60328 40.21370 37902 ft 486 kts 237°
2026-05-05 02:57 9.56648 40.15617 37912 ft 486 kts 237°
2026-05-05 02:58 9.52929 40.09873 37926 ft 486 kts 237°
2026-05-05 02:58 9.49232 40.04181 37922 ft 486 kts 237°
2026-05-05 02:59 9.45560 39.98530 37945 ft 486 kts 237°
2026-05-05 02:59 9.41859 39.92830 37965 ft 486 kts 237°
2026-05-05 03:00 9.38145 39.87114 37695 ft 484 kts 237°
2026-05-05 03:00 9.36281 39.84246 37357 ft 485 kts 236°
2026-05-05 03:00 9.34421 39.81384 36946 ft 487 kts 236°
2026-05-05 03:00 9.32577 39.78548 36603 ft 488 kts 236°
2026-05-05 03:01 9.30704 39.75669 36202 ft 489 kts 236°
2026-05-05 03:01 9.28823 39.72777 35805 ft 490 kts 236°
2026-05-05 03:01 9.26945 39.69891 35177 ft 491 kts 236°
2026-05-05 03:01 9.25073 39.67014 34189 ft 496 kts 236°
2026-05-05 03:02 9.23166 39.64086 33067 ft 499 kts 236°
2026-05-05 03:02 9.21247 39.61139 31950 ft 501 kts 237°
2026-05-05 03:02 9.19322 39.58184 30883 ft 503 kts 237°
2026-05-05 03:02 9.17423 39.55269 30155 ft 497 kts 237°
2026-05-05 03:03 9.15526 39.52356 29284 ft 493 kts 237°
2026-05-05 03:03 9.13646 39.49472 28495 ft 487 kts 237°
2026-05-05 03:03 9.11782 39.46613 27773 ft 482 kts 237°
2026-05-05 03:03 9.09950 39.43801 27053 ft 477 kts 237°
2026-05-05 03:04 9.08126 39.41004 26356 ft 472 kts 237°
2026-05-05 03:04 9.06345 39.38273 25697 ft 468 kts 237°
2026-05-05 03:04 9.04559 39.35535 25007 ft 465 kts 237°
2026-05-05 03:04 9.02775 39.32800 24324 ft 462 kts 237°
2026-05-05 03:05 9.01004 39.30086 23663 ft 460 kts 237°
2026-05-05 03:05 8.99271 39.27431 22901 ft 457 kts 237°
2026-05-05 03:05 8.97624 39.24718 22210 ft 449 kts 244°
2026-05-05 03:05 8.96705 39.21729 21567 ft 442 kts 263°
2026-05-05 03:06 8.96449 39.18669 20991 ft 433 kts 266°
2026-05-05 03:06 8.96211 39.15639 20385 ft 431 kts 266°
2026-05-05 03:06 8.95835 39.12630 19686 ft 432 kts 259°
2026-05-05 03:06 8.95121 39.09709 18987 ft 435 kts 253°
2026-05-05 03:07 8.94082 39.06848 18175 ft 427 kts 249°
2026-05-05 03:07 8.93034 39.04166 17064 ft 421 kts 249°
2026-05-05 03:07 8.91971 39.01445 16346 ft 406 kts 249°
2026-05-05 03:07 8.90974 38.98872 15833 ft 405 kts 249°
2026-05-05 03:08 8.89953 38.96218 15200 ft 399 kts 249°
2026-05-05 03:08 8.88972 38.93657 14838 ft 379 kts 249°
2026-05-05 03:08 8.88055 38.91286 14695 ft 354 kts 249°
2026-05-05 03:08 8.87179 38.89039 14545 ft 331 kts 249°
2026-05-05 03:09 8.86353 38.86944 14397 ft 312 kts 249°
2026-05-05 03:09 8.85553 38.84932 14209 ft 304 kts 249°
2026-05-05 03:09 8.84769 38.82974 13990 ft 298 kts 249°
2026-05-05 03:09 8.83993 38.81038 13623 ft 295 kts 249°
2026-05-05 03:10 8.83227 38.79128 13349 ft 290 kts 249°
2026-05-05 03:10 8.82483 38.77274 13201 ft 279 kts 249°
2026-05-05 03:10 8.81769 38.75491 13074 ft 274 kts 249°
2026-05-05 03:10 8.81065 38.73726 12952 ft 266 kts 252°
2026-05-05 03:11 8.80882 38.71940 12824 ft 253 kts 289°
2026-05-05 03:11 8.81611 38.70421 12808 ft 250 kts 313°
2026-05-05 03:11 8.82406 38.69572 12668 ft 252 kts 325°
2026-05-05 03:11 8.83929 38.68727 12240 ft 246 kts 347°
2026-05-05 03:12 8.86119 38.68622 11672 ft 233 kts 19°
2026-05-05 03:12 8.87602 38.69147 11314 ft 219 kts 22°
2026-05-05 03:12 8.89009 38.69654 10950 ft 209 kts 22°
2026-05-05 03:12 8.89910 38.69976 10727 ft 206 kts 22°
2026-05-05 03:13 8.91252 38.70455 10388 ft 199 kts 22°
2026-05-05 03:13 8.92900 38.71037 9925 ft 182 kts 22°
2026-05-05 03:13 8.93676 38.71310 9713 ft 174 kts 21°
2026-05-05 03:13 8.95085 38.71843 9319 ft 149 kts 33°
2026-05-05 03:14 8.95561 38.72325 9124 ft 146 kts 63°
2026-05-05 03:14 8.95869 38.73324 9027 ft 153 kts 72°
2026-05-05 03:14 8.96197 38.74360 8805 ft 155 kts 71°
2026-05-05 03:14 8.96526 38.75400 8559 ft 152 kts 71°
2026-05-05 03:15 8.96851 38.76415 8162 ft 151 kts 72°
2026-05-05 03:15 8.97150 38.77443 7874 ft 154 kts 72°
2026-05-05 03:15 8.97463 38.78468 7664 ft 154 kts 73°
2026-05-05 03:15 8.97744 38.79431 7623 ft 122 kts 75°
2026-05-05 03:16 8.97927 38.80050 7626 ft 44 kts 73°
2026-05-05 03:16 8.97998 38.80171 7627 ft 18 kts 357°
2026-05-05 03:16 8.98120 38.80137 7628 ft 18 kts 345°
2026-05-05 03:16 8.98225 38.80108 7625 ft 14 kts 344°
2026-05-05 03:17 8.98281 38.80044 7625 ft 14 kts 271°
2026-05-05 03:17 8.98258 38.79958 7625 ft 10 kts 253°
2026-05-05 03:17 8.98287 38.79918 7625 ft 8 kts 343°
2026-05-05 03:17 8.98306 38.79913 7625 ft 0 kts 343°